Flag for Australia Weather past 2 weeks in Macquarie Island, Tasmania, Australia

Now
40 °F

Chilly.


Feels Like: 29 °F
Forecast: 41 / 43 °F
Wind: 26 mph from West

Location: Macquarie Island

Current Time: Jul 25, 2014 at 4:58:59 AM

Latest Report: Jul 25, 2014 at 4:00 AM


Visibility: N/A

Pressure: 29.67 "Hg

Humidity: 90%

Dew point: 37 °F

Location of Macquarie IslandLocation

Historic Weather in Macquarie Island — Graph

°F

Macquarie Island temperature yesterday

Maximum temperature yesterday: 42 °F (at 5:00 AM)
Minimum temperature yesterday: 37 °F (at 7:00 PM)
Average temperature yesterday: 38 °F

Past Weeks' High & Low Weather Summary

 TemperatureHumidityPressure
High45 °F (Jul 10, 2:00 PM)98% (Jul 11, 7:00 AM)30.05 "Hg (Jul 11, 7:00 AM)
Low33 °F (Jul 20, 7:00 PM)59% (Jul 13, 7:00 PM)29.03 "Hg (Jul 12, 4:00 AM)
Average40 °F88%29.59 "Hg
* Reported Jul 10 2:00 AM — Jul 25 2:00 AM, Macquarie Island, Weather by CustomWeather, © 2014

Note: Actual official high and low records may vary slightly from our data, if they occured in-between our weather recording intervals... More about our weather records

Advertising

Macquarie Island weather history for previous 24 hours

 ConditionsComfort  
Time TempWeatherWind HumidityBarometerVisibility
2:00 AM
Jul 25
40 °FChilly.24 mph87%29.66 "HgN/A
1:00 AM39 °FChilly.18 mph95%29.68 "HgN/A
11:00 PM
Jul 24
38 °FChilly.15 mph83%29.69 "HgN/A
10:00 PM37 °FPassing clouds.20 mph82%29.69 "Hg19 mi
8:00 PM37 °FChilly.21 mph84%29.65 "HgN/A
7:00 PM37 °FPassing clouds.20 mph87%29.62 "Hg19 mi
5:00 PM37 °FChilly.14 mph84%29.56 "HgN/A
4:00 PM37 °FSleet. Overcast.17 mph82%29.53 "Hg19 mi
2:00 PM37 °FChilly.18 mph79%29.44 "HgN/A
1:00 PM38 °FSprinkles. Overcast.25 mph80%29.44 "Hg19 mi
11:00 AM38 °FChilly.29 mph84%29.38 "HgN/A
10:00 AM38 °FSprinkles. Overcast.36 mph85%29.38 "Hg16 mi
8:00 AM40 °FChilly.37 mph87%29.35 "HgN/A
7:00 AM41 °FQuite cool.33 mph87%29.32 "HgN/A
5:00 AM42 °FQuite cool.30 mph96%29.32 "HgN/A
4:00 AM41 °FQuite cool.29 mph95%29.35 "HgN/A
Weather by CustomWeather, © 2014

See weather overviewHow to use our weather pages